When you browse on this site, cookies collect data to enhance your experience and personalize the content and advertising you see.
Visit our Privacy Policy to learn more. By continuing to use the site, you agree to this use of cookies and data.
  • în România
  • Lista ţărilor
  • Pe 7 zile
  • Temperatura apei
  • Hartă satelitară
  • Meteo pe hartă
  • Widget-uri
  • user-avatar
    Intrare

    Meteo pe oră la Cam Ranh

    Astăzi, 17 Ianuarie, Joi

    Timp Temperatura Precipitaţii Vânt Presiune Umiditate
    00:00 +24°C° 0.1 mm 6 m/s 755 mmHg 92%
    01:00 +23°C° 0 mm 5 m/s 755 mmHg 92%
    02:00 +25°C° 0.3 mm 5 m/s 755 mmHg 91%
    03:00 +24°C° 0.3 mm 6 m/s 755 mmHg 90%
    04:00 +24°C° 0.3 mm 6 m/s 755 mmHg 90%
    05:00 +24°C° 0.2 mm 6 m/s 755 mmHg 89%
    06:00 +24°C° 0.2 mm 6 m/s 755 mmHg 89%
    07:00 +24°C° 0 mm 6 m/s 755 mmHg 89%
    08:00 +27°C° 0.2 mm 6 m/s 755 mmHg 83%
    09:00 +28°C° 0.2 mm 7 m/s 755 mmHg 77%
    10:00 +29°C° 0.2 mm 7 m/s 755 mmHg 71%
    11:00 +30°C° 0.1 mm 7 m/s 755 mmHg 68%
    12:00 +30°C° 0.1 mm 7 m/s 755 mmHg 65%
    13:00 +31°C° 0 mm 8 m/s 754 mmHg 65%
    14:00 +31°C° 0.3 mm 8 m/s 754 mmHg 68%
    15:00 +29°C° 0.3 mm 7 m/s 754 mmHg 71%
    16:00 +28°C° 0.3 mm 7 m/s 754 mmHg 74%
    17:00 +27°C° 0.3 mm 7 m/s 754 mmHg 79%
    18:00 +26°C° 0.3 mm 7 m/s 754 mmHg 85%
    19:00 +24°C° 0.3 mm 7 m/s 755 mmHg 90%
    20:00 +24°C° 0.4 mm 7 m/s 755 mmHg 90%
    21:00 +24°C° 0.4 mm 7 m/s 755 mmHg 91%
    22:00 +24°C° 0.4 mm 7 m/s 756 mmHg 91%
    23:00 +24°C° 0.7 mm 7 m/s 756 mmHg 92%

    Mâine, 18 Ianuarie, Vineri

    Timp Temperatura Precipitaţii Vânt Presiune Umiditate
    00:00 +24°C° 0.7 mm 8 m/s 755 mmHg 93%
    01:00 +24°C° 0.7 mm 8 m/s 755 mmHg 93%
    02:00 +24°C° 0.7 mm 8 m/s 755 mmHg 94%
    03:00 +24°C° 0.7 mm 8 m/s 755 mmHg 94%
    04:00 +24°C° 0.7 mm 8 m/s 755 mmHg 95%
    05:00 +24°C° 0.5 mm 8 m/s 755 mmHg 95%
    06:00 +24°C° 0.5 mm 8 m/s 755 mmHg 95%
    07:00 +24°C° 0.5 mm 8 m/s 755 mmHg 95%
    08:00 +24°C° 0.3 mm 8 m/s 755 mmHg 91%
    09:00 +26°C° 0.3 mm 9 m/s 755 mmHg 87%
    10:00 +27°C° 0.3 mm 9 m/s 756 mmHg 83%
    11:00 +28°C° 0.1 mm 9 m/s 755 mmHg 76%
    12:00 +29°C° 0.1 mm 9 m/s 755 mmHg 70%
    13:00 +32°C° 0.1 mm 9 m/s 754 mmHg 63%
    14:00 +31°C° 0.1 mm 9 m/s 754 mmHg 66%
    15:00 +29°C° 0.1 mm 9 m/s 754 mmHg 68%
    16:00 +29°C° 0.1 mm 9 m/s 753 mmHg 71%
    17:00 +27°C° 0.1 mm 8 m/s 754 mmHg 77%
    18:00 +26°C° 0.1 mm 8 m/s 754 mmHg 83%
    19:00 +24°C° 0.1 mm 8 m/s 755 mmHg 88%
    20:00 +24°C° 0.1 mm 8 m/s 755 mmHg 89%
    21:00 +24°C° 0.1 mm 8 m/s 755 mmHg 89%
    22:00 +24°C° 0.1 mm 7 m/s 756 mmHg 90%
    23:00 +24°C° 0.1 mm 7 m/s 755 mmHg 90%

    Poimâine, 19 Ianuarie, Sâmbătă

    Timp Temperatura Precipitaţii Vânt Presiune Umiditate
    00:00 +24°C° 0.1 mm 7 m/s 755 mmHg 90%
    01:00 +23°C° 0.1 mm 7 m/s 755 mmHg 90%
    02:00 +23°C° 0.1 mm 7 m/s 755 mmHg 91%
    03:00 +23°C° 0.1 mm 7 m/s 754 mmHg 91%
    04:00 +23°C° 0.1 mm 6 m/s 754 mmHg 92%
    05:00 +24°C° 0.2 mm 6 m/s 754 mmHg 91%
    06:00 +24°C° 0.2 mm 6 m/s 754 mmHg 91%
    07:00 +25°C° 0.2 mm 5 m/s 755 mmHg 91%
    08:00 +27°C° 0.1 mm 5 m/s 755 mmHg 83%
    09:00 +28°C° 0.1 mm 5 m/s 755 mmHg 76%
    10:00 +30°C° 0.1 mm 5 m/s 755 mmHg 68%
    11:00 +30°C° 0 mm 5 m/s 755 mmHg 65%
    12:00 +32°C° 0 mm 6 m/s 754 mmHg 62%
    13:00 +32°C° 0 mm 6 m/s 753 mmHg 59%
    14:00 +30°C° 0.1 mm 6 m/s 753 mmHg 62%
    15:00 +30°C° 0.1 mm 5 m/s 753 mmHg 64%
    16:00 +29°C° 0.1 mm 5 m/s 752 mmHg 67%
    17:00 +27°C° 0.1 mm 5 m/s 753 mmHg 75%
    18:00 +26°C° 0.1 mm 5 m/s 754 mmHg 82%
    19:00 +23°C° 0.1 mm 5 m/s 754 mmHg 90%
    20:00 +23°C° 0 mm 5 m/s 755 mmHg 89%
    21:00 +23°C° 0 mm 5 m/s 755 mmHg 89%
    22:00 +22°C° 0 mm 4 m/s 755 mmHg 88%
    23:00 +22°C° 0 mm 4 m/s 755 mmHg 87%

    20 Ianuarie, Duminică

    Timp Temperatura Precipitaţii Vânt Presiune Umiditate
    00:00 +22°C° 0 mm 4 m/s 755 mmHg 87%
    01:00 +22°C° 0 mm 4 m/s 755 mmHg 86%
    02:00 +22°C° 0 mm 4 m/s 754 mmHg 86%
    03:00 +22°C° 0 mm 5 m/s 754 mmHg 86%
    04:00 +22°C° 0 mm 5 m/s 754 mmHg 86%
    05:00 +22°C° 0 mm 5 m/s 754 mmHg 86%
    06:00 +22°C° 0 mm 5 m/s 755 mmHg 85%
    07:00 +22°C° 0 mm 5 m/s 755 mmHg 84%
    08:00 +26°C° 0 mm 5 m/s 755 mmHg 77%
    09:00 +28°C° 0 mm 5 m/s 755 mmHg 70%
    10:00 +30°C° 0 mm 5 m/s 756 mmHg 63%
    11:00 +30°C° 0 mm 5 m/s 755 mmHg 62%
    12:00 +32°C° 0 mm 5 m/s 754 mmHg 61%
    13:00 +32°C° 0 mm 6 m/s 753 mmHg 60%
    14:00 +32°C° 0 mm 6 m/s 753 mmHg 63%
    15:00 +30°C° 0 mm 6 m/s 752 mmHg 66%
    16:00 +29°C° 0 mm 6 m/s 752 mmHg 69%
    17:00 +28°C° 0 mm 6 m/s 753 mmHg 77%
    18:00 +26°C° 0 mm 6 m/s 753 mmHg 85%
    19:00 +24°C° 0 mm 6 m/s 754 mmHg 93%
    20:00 +23°C° 0 mm 6 m/s 754 mmHg 94%
    21:00 +23°C° 0 mm 6 m/s 755 mmHg 94%
    22:00 +23°C° 0 mm 6 m/s 755 mmHg 95%
    23:00 +22°C° 0 mm 5 m/s 755 mmHg 93%

    21 Ianuarie, Luni

    Timp Temperatura Precipitaţii Vânt Presiune Umiditate
    00:00 +22°C° 0 mm 5 m/s 755 mmHg 91%
    01:00 +22°C° 0 mm 5 m/s 754 mmHg 89%
    02:00 +22°C° 0.1 mm 5 m/s 754 mmHg 88%
    03:00 +22°C° 0.1 mm 6 m/s 754 mmHg 88%
    04:00 +22°C° 0.1 mm 6 m/s 754 mmHg 87%
    05:00 +22°C° 0 mm 6 m/s 754 mmHg 87%
    06:00 +23°C° 0 mm 6 m/s 755 mmHg 87%
    07:00 +23°C° 0 mm 6 m/s 755 mmHg 87%
    08:00 +26°C° 0 mm 6 m/s 755 mmHg 76%
    09:00 +28°C° 0 mm 6 m/s 755 mmHg 65%
    10:00 +30°C° 0 mm 6 m/s 756 mmHg 54%
    11:00 +32°C° 0 mm 6 m/s 755 mmHg 54%
    12:00 +33°C° 0 mm 7 m/s 754 mmHg 54%
    13:00 +33°C° 0 mm 7 m/s 753 mmHg 54%
    14:00 +32°C° 0 mm 7 m/s 753 mmHg 59%
    15:00 +32°C° 0 mm 7 m/s 753 mmHg 63%
    16:00 +30°C° 0 mm 7 m/s 752 mmHg 67%
    17:00 +29°C° 0 mm 7 m/s 753 mmHg 74%
    18:00 +27°C° 0 mm 7 m/s 754 mmHg 80%
    19:00 +26°C° 0 mm 7 m/s 755 mmHg 87%
    20:00 +26°C° 0.1 mm 7 m/s 755 mmHg 87%
    21:00 +24°C° 0.1 mm 7 m/s 755 mmHg 87%
    22:00 +24°C° 0.1 mm 6 m/s 755 mmHg 88%
    23:00 +24°C° 0.2 mm 6 m/s 755 mmHg 88%

    22 Ianuarie, Marţi

    Timp Temperatura Precipitaţii Vânt Presiune Umiditate
    00:00 +24°C° 0.2 mm 6 m/s 755 mmHg 89%
    01:00 +24°C° 0.2 mm 6 m/s 754 mmHg 90%
    02:00 +24°C° 0.3 mm 7 m/s 754 mmHg 90%
    03:00 +24°C° 0.3 mm 7 m/s 754 mmHg 91%
    04:00 +24°C° 0.3 mm 7 m/s 754 mmHg 91%
    05:00 +24°C° 0.2 mm 7 m/s 754 mmHg 90%
    06:00 +24°C° 0.2 mm 7 m/s 755 mmHg 89%
    07:00 +24°C° 0.2 mm 8 m/s 755 mmHg 88%
    08:00 +26°C° 0.3 mm 8 m/s 755 mmHg 84%
    09:00 +27°C° 0.3 mm 8 m/s 756 mmHg 80%
    10:00 +28°C° 0.3 mm 9 m/s 756 mmHg 76%
    11:00 +29°C° 0.2 mm 9 m/s 755 mmHg 73%
    12:00 +29°C° 0.2 mm 9 m/s 755 mmHg 71%
    13:00 +29°C° 0.2 mm 9 m/s 754 mmHg 69%
    14:00 +29°C° 0.3 mm 9 m/s 754 mmHg 71%
    15:00 +28°C° 0.3 mm 9 m/s 754 mmHg 74%
    16:00 +27°C° 0.3 mm 9 m/s 753 mmHg 77%
    17:00 +26°C° 0.2 mm 9 m/s 754 mmHg 80%
    18:00 +24°C° 0.2 mm 9 m/s 755 mmHg 84%
    19:00 +24°C° 0.2 mm 9 m/s 755 mmHg 88%
    20:00 +24°C° 0.2 mm 9 m/s 755 mmHg 88%
    21:00 +23°C° 0.2 mm 9 m/s 756 mmHg 87%
    22:00 +23°C° 0.2 mm 9 m/s 756 mmHg 87%
    23:00 +23°C° 0.2 mm 9 m/s 756 mmHg 88%
    Arată mai mult